Powrót do katalogu

SL-8 R/B

AktywnyLEO
NORAD 13028·ROCKET BODY·🇷🇺 Russia

Wystrzelony Jan 7, 1982 z Plesetsk Cosmodrome

Loading…

Następne Przeloty (najbliższe 24 godziny)

TLE

ŚwieżeSource: Space-Track

Epoka: Sep 14, 2026, 08:06 UTC

1 13028U 82001B   26257.33789088  .00000148  00000-0  55269-4 0  9997
2 13028  74.0386 284.6788 0020418 254.1618 105.7286 14.39954589342420

Śledź SL-8 R/B w czasie rzeczywistym z AllMySat

Download on the App Store